Miscellaneous Local Product
Issued by NWS North Platte, NE

Home | Current Version | Previous Version | Text Only | Print | Product List | Glossary On
Versions: 1 2 3 4 5 6 7 8 9 10 11 12 13 14 15 16 17 18 19 20 21 22 23 24 25 26 27 28 29 30 31 32 33 34 35 36 37 38 39 40 41 42 43 44 45 46 47 48 49 50
000
AXUS43 KLBF 300810
MISLBF


WESTERN AND NORTH CENTRAL NEBRASKA HOURLY WEATHER ROUNDUP
NATIONAL WEATHER SERVICE NORTH PLATTE NE
300 AM CDT MON MAY 30 2016

NOTE: "FAIR" INDICATES FEW OR NO CLOUDS BELOW 12,000 FEET WITH NO
SIGNIFICANT WEATHER AND/OR OBSTRUCTIONS TO VISIBILITY.

NOTE: STATIONS NOT REPORTING VARIABLES SUCH AS SKY/WEATHER OR
PRESSURE ARE PROVIDED BY RAWS AND APRS NETWORKS AND ARE NOT UNDER
NATIONAL WEATHER SERVICE QUALITY CONTROL.

...OBSERVATIONS IN AND NEAR THE EASTERN PANHANDLE OF NEBRASKA...

CITY           SKY/WX    TMP DP  RH WIND       PRES   REMARKS
PINE RIDGE     CLOUDY    62  52  69 S20G30    29.96S
CHADRON        CLOUDY    58  46  64 S14       29.96F
ALLIANCE       CLOUDY    56  51  84 S14       30.02F
SIDNEY         CLOUDY    56  49  77 S15       30.07F
CRESCENT LAKE    N/A     57  51  80 SW13        N/A
BIG SPRINGS      N/A     60  54  82 SW8         N/A
$$

...OBSERVATIONS IN NORTHERN NEBRASKA AND FAR SOUTHERN SOUTH DAKOTA...

CITY           SKY/WX    TMP DP  RH WIND       PRES   REMARKS
WINNER         FAIR      62  53  72 NE9       29.95R
VALENTINE      CLOUDY    57  52  83 SE7       29.96F
THEDFORD       MOCLDY    63  52  67 SW6       29.98F
AINSWORTH      CLOUDY    64  51  64 S9        29.96F
O`NEILL        CLOUDY    65  58  77 SE6       29.99F
ORD            CLOUDY    64  52  64 SW12      29.96F
BROKEN BOW     CLOUDY    61  53  75 SW5       30.00F
BUTTE            N/A     60  57  89 E12         N/A
CHAMBERS         N/A     62  57  83 CALM        N/A
EWING            N/A     66  58  75 CALM        N/A
$$

...OBSERVATIONS IN SOUTHWEST NEBRASKA AND FAR NORTHEAST COLORADO...

CITY           SKY/WX    TMP DP  RH WIND       PRES   REMARKS
WRAY           FAIR      59  48  67 S6        30.09S
HOLYOKE        FAIR      59  50  72 S10       30.06F
IMPERIAL       CLOUDY    59  51  75 SE6       30.02F
OGALLALA       CLOUDY    60  50  69 SW13G18   30.01R
NORTH PLATTE   CLOUDY    61  52  72 S9        29.98F
MCCOOK         CLOUDY    60  52  74 SE5       30.02F
LEXINGTON      PTCLDY    64  51  62 SW9       30.02F
PAXTON           N/A     62  53  73 W6          N/A
STAPLETON        N/A     58  52  81 CALM        N/A
GOTHENBURG       N/A     64  51  61 SW6         N/A
CALLAWAY         N/A     59  52  77 SW9         N/A
$$

...OBSERVATIONS IN CENTRAL LINCOLN COUNTY AREA...

CITY           SKY/WX    TMP DP  RH WIND       PRES   REMARKS
N.P. AIRPORT   CLOUDY    61  52  72 S9        29.98F
N.P. DOWNTOWN    N/A     63  53  69 S5G12       N/A
N.P. HILLCREST   N/A     61  53  75 SE5         N/A
$$

...SOME OBSERVATIONS FROM AROUND THE REGION...

CITY           SKY/WX    TMP DP  RH WIND       PRES   REMARKS
DENVER         CLOUDY    48  42  80 S14       30.10F
LARAMIE        CLOUDY    40  34  79 SW13      30.16S WCI  32
CHEYENNE       CLOUDY    47  40  76 W9        30.11F
SCOTTSBLUFF    CLOUDY    59  50  72 SE10      30.02F
RAPID CITY     CLEAR     50  49  96 W3        29.94F
BISMARCK       CLEAR     55  51  86 E3        29.93F
PIERRE         CLOUDY    62  58  86 SE12      29.92F
SIOUX FALLS    CLOUDY    59  55  87 W5        30.01R
OMAHA          CLOUDY    69  60  73 SE6       29.99S
GRAND ISLAND   PTCLDY    64  52  64 SW10      29.98F
KANSAS CITY    CLOUDY    65  59  81 S6        30.02F
WICHITA        MOCLDY    68  61  78 CALM      30.01F
OKLAHOMA CITY  CLOUDY    67  62  84 E3        30.02F
DALLAS         TSTM      71  65  81 S5        29.99F
AMARILLO       CLEAR     53  49  86 SW6       30.07S
DODGE CITY     PTCLDY    58  51  78 S10       30.07F
HAYS           PTCLDY    61  50  67 SW7       30.03F
GOODLAND       PTCLDY    55  51  86 SW7       30.09F
$$




USA.gov is the U.S. government's official web portal to all federal, state and local government web resources and services.